Time,TemperatureF,DewpointF,PressureIn,WindDirection,WindDirectionDegrees,WindSpeedMPH,WindSpeedGustMPH,Humidity,HourlyPrecipIn,Conditions,Clouds,dailyrainin,SoftwareType,DateUTC
2013-09-07 00:00:00,59.3,50.3,30.08,SE,144,0.0,0.0,72,0.00,,---,0.00,VWS V14.01,2013-09-07 04:00:00,
2013-09-07 00:01:00,59.3,50.3,30.08,SE,144,0.0,0.0,72,0.00,,---,0.00,VWS V14.01,2013-09-07 04:01:00,
2013-09-07 00:02:00,59.1,50.1,30.08,SE,144,0.0,0.0,72,0.00,,---,0.00,VWS V14.01,2013-09-07 04:02:00,
2013-09-07 00:04:00,59.1,50.1,30.08,SE,144,0.0,0.0,72,0.00,,---,0.00,VWS V14.01,2013-09-07 04:04:00,
2013-09-07 00:09:00,59.0,50.0,30.08,SE,144,0.0,0.0,72,0.00,,---,0.00,VWS V14.01,2013-09-07 04:09:00,
2013-09-07 00:10:00,59.0,50.4,30.08,SE,144,0.0,0.0,73,0.00,,---,0.00,VWS V14.01,2013-09-07 04:10:00,
2013-09-07 00:14:00,58.8,50.5,30.08,SE,144,0.0,0.0,74,0.00,,---,0.00,VWS V14.01,2013-09-07 04:14:00,
2013-09-07 00:19:00,58.6,50.3,30.08,SE,144,0.0,0.0,74,0.00,,---,0.00,VWS V14.01,2013-09-07 04:19:00,
2013-09-07 00:20:00,58.6,50.3,30.08,SE,144,0.0,0.0,74,0.00,,---,0.00,VWS V14.01,2013-09-07 04:20:00,
2013-09-07 00:24:00,58.5,51.0,30.08,SE,144,0.0,0.0,76,0.00,,---,0.00,VWS V14.01,2013-09-07 04:24:00,
2013-09-07 00:29:00,58.5,51.0,30.07,SE,144,0.0,0.0,76,0.00,,---,0.00,VWS V14.01,2013-09-07 04:29:00,
2013-09-07 00:30:00,58.3,50.8,30.07,SE,144,0.0,0.0,76,0.00,,---,0.00,VWS V14.01,2013-09-07 04:30:00,
2013-09-07 00:34:00,58.3,50.8,30.07,SE,144,0.0,0.0,76,0.00,,---,0.00,VWS V14.01,2013-09-07 04:34:00,
2013-09-07 00:39:00,58.2,51.0,30.07,SE,144,0.0,0.0,77,0.00,,---,0.00,VWS V14.01,2013-09-07 04:39:00,
2013-09-07 00:40:00,58.2,51.0,30.07,SE,144,0.0,0.0,77,0.00,,---,0.00,VWS V14.01,2013-09-07 04:40:00,
2013-09-07 00:44:00,58.0,50.8,30.07,SE,144,0.0,0.0,77,0.00,,---,0.00,VWS V14.01,2013-09-07 04:44:00,
2013-09-07 00:50:00,58.0,51.2,30.07,SE,144,0.0,0.0,78,0.00,,---,0.00,VWS V14.01,2013-09-07 04:50:00,
2013-09-07 00:55:00,58.0,51.2,30.07,SE,144,0.0,0.0,78,0.00,,---,0.00,VWS V14.01,2013-09-07 04:55:00,
2013-09-07 01:00:00,58.0,51.9,30.07,SE,144,0.0,0.0,80,0.00,,---,0.00,VWS V14.01,2013-09-07 05:00:00,
2013-09-07 01:05:00,58.0,51.9,30.07,SE,144,0.0,0.0,80,0.00,,---,0.00,VWS V14.01,2013-09-07 05:05:00,
2013-09-07 01:10:00,58.0,52.2,30.07,SE,144,0.0,0.0,81,0.00,,---,0.00,VWS V14.01,2013-09-07 05:10:00,
2013-09-07 01:15:00,58.0,52.2,30.07,SE,144,0.0,0.0,81,0.00,,---,0.00,VWS V14.01,2013-09-07 05:15:00,
2013-09-07 01:20:00,57.9,52.1,30.07,SE,144,0.0,0.0,81,0.00,,---,0.00,VWS V14.01,2013-09-07 05:20:00,
2013-09-07 01:25:00,57.7,52.2,30.07,SE,144,0.0,0.0,82,0.00,,---,0.00,VWS V14.01,2013-09-07 05:25:00,
2013-09-07 01:30:00,57.7,52.2,30.08,SE,144,0.0,0.0,82,0.00,,---,0.00,VWS V14.01,2013-09-07 05:30:00,
2013-09-07 01:35:00,57.7,52.6,30.08,SE,144,0.0,0.0,83,0.00,,---,0.00,VWS V14.01,2013-09-07 05:35:00,
2013-09-07 01:40:00,57.7,52.6,30.08,SE,144,0.0,0.0,83,0.00,,---,0.00,VWS V14.01,2013-09-07 05:40:00,
2013-09-07 01:45:00,57.7,52.9,30.07,SE,144,0.0,0.0,84,0.00,,---,0.00,VWS V14.01,2013-09-07 05:45:00,
2013-09-07 01:50:00,58.0,53.2,30.07,SE,144,0.0,0.0,84,0.00,,---,0.00,VWS V14.01,2013-09-07 05:50:00,
2013-09-07 01:55:00,58.3,53.5,30.07,SE,144,0.0,0.0,84,0.00,,---,0.00,VWS V14.01,2013-09-07 05:55:00,
2013-09-07 02:00:00,58.3,53.2,30.07,SE,144,0.0,0.0,83,0.00,,---,0.00,VWS V14.01,2013-09-07 06:00:00,
2013-09-07 02:05:00,58.5,53.4,30.07,SE,144,0.0,0.0,83,0.00,,---,0.00,VWS V14.01,2013-09-07 06:05:00,
2013-09-07 02:10:00,58.8,53.3,30.07,SE,144,0.0,0.0,82,0.00,,---,0.00,VWS V14.01,2013-09-07 06:10:00,
2013-09-07 02:15:00,59.1,53.3,30.07,SE,144,0.0,0.0,81,0.00,,---,0.00,VWS V14.01,2013-09-07 06:15:00,
2013-09-07 02:20:00,59.3,53.1,30.07,SE,144,0.0,0.0,80,0.00,,---,0.00,VWS V14.01,2013-09-07 06:20:00,
2013-09-07 02:25:00,59.6,53.1,30.07,SE,144,0.0,0.0,79,0.00,,---,0.00,VWS V14.01,2013-09-07 06:25:00,
2013-09-07 02:30:00,59.7,53.2,30.06,SE,144,0.0,0.0,79,0.00,,---,0.00,VWS V14.01,2013-09-07 06:30:00,
2013-09-07 02:35:00,59.9,52.7,30.06,SSE,165,0.0,1.0,77,0.00,,---,0.00,VWS V14.01,2013-09-07 06:35:00,
2013-09-07 02:40:00,60.0,52.4,30.06,SSE,165,0.0,1.0,76,0.00,,---,0.00,VWS V14.01,2013-09-07 06:40:00,
2013-09-07 02:45:00,60.3,52.3,30.06,SSE,165,0.0,0.0,75,0.00,,---,0.00,VWS V14.01,2013-09-07 06:45:00,
2013-09-07 02:50:00,60.6,52.3,30.06,SSE,165,0.0,0.0,74,0.00,,---,0.00,VWS V14.01,2013-09-07 06:50:00,
2013-09-07 02:55:00,60.6,52.3,30.06,SSE,165,0.0,0.0,74,0.00,,---,0.00,VWS V14.01,2013-09-07 06:55:00,
2013-09-07 03:00:00,60.8,52.1,30.05,SSE,165,0.0,0.0,73,0.00,,---,0.00,VWS V14.01,2013-09-07 07:00:00,
2013-09-07 03:05:00,60.9,52.2,30.05,SSE,165,0.0,1.0,73,0.00,,---,0.00,VWS V14.01,2013-09-07 07:05:00,
2013-09-07 03:10:00,61.1,52.4,30.05,SSW,193,0.0,1.0,73,0.00,,---,0.00,VWS V14.01,2013-09-07 07:10:00,
2013-09-07 03:15:00,61.2,52.5,30.05,SSW,193,0.0,0.0,73,0.00,,---,0.00,VWS V14.01,2013-09-07 07:15:00,
2013-09-07 03:20:00,61.4,52.7,30.05,South,175,0.0,0.0,73,0.00,,---,0.00,VWS V14.01,2013-09-07 07:20:00,
2013-09-07 03:25:00,61.5,52.8,30.05,SSW,193,0.0,4.0,73,0.00,,---,0.00,VWS V14.01,2013-09-07 07:25:00,
2013-09-07 03:30:00,61.7,53.0,30.05,SSW,192,0.0,0.0,73,0.00,,---,0.00,VWS V14.01,2013-09-07 07:30:00,
2013-09-07 03:35:00,61.5,52.4,30.05,SSW,192,0.0,0.0,72,0.00,,---,0.00,VWS V14.01,2013-09-07 07:35:00,
2013-09-07 03:40:00,61.5,52.4,30.05,South,191,0.0,0.0,72,0.00,,---,0.00,VWS V14.01,2013-09-07 07:40:00,
2013-09-07 03:45:00,61.5,52.4,30.05,South,191,0.0,0.0,72,0.00,,---,0.00,VWS V14.01,2013-09-07 07:45:00,
2013-09-07 03:50:00,61.4,52.3,30.05,South,191,0.0,0.0,72,0.00,,---,0.00,VWS V14.01,2013-09-07 07:50:00,
2013-09-07 03:55:00,61.4,52.3,30.05,SE,145,0.0,0.0,72,0.00,,---,0.00,VWS V14.01,2013-09-07 07:55:00,
2013-09-07 04:00:00,61.5,52.4,30.05,South,174,0.0,0.0,72,0.00,,---,0.00,VWS V14.01,2013-09-07 08:00:00,
2013-09-07 04:05:00,61.7,52.2,30.05,South,175,0.0,0.0,71,0.00,,---,0.00,VWS V14.01,2013-09-07 08:05:00,
2013-09-07 04:10:00,61.7,52.2,30.05,SW,229,0.0,0.0,71,0.00,,---,0.00,VWS V14.01,2013-09-07 08:10:00,
2013-09-07 04:11:00,61.7,52.2,30.05,SE,141,2.0,2.0,71,0.00,,---,0.00,VWS V14.01,2013-09-07 08:11:00,
2013-09-07 04:16:00,61.7,52.2,30.04,SSE,168,0.0,3.0,71,0.00,,---,0.00,VWS V14.01,2013-09-07 08:16:00,
2013-09-07 04:20:00,61.5,52.0,30.04,SW,226,0.0,3.0,71,0.00,,---,0.00,VWS V14.01,2013-09-07 08:20:00,
2013-09-07 04:21:00,61.5,52.0,30.04,SW,226,0.0,0.0,71,0.00,,---,0.00,VWS V14.01,2013-09-07 08:21:00,
2013-09-07 04:26:00,61.5,52.4,30.04,SSE,157,0.0,1.0,72,0.00,,---,0.00,VWS V14.01,2013-09-07 08:26:00,
2013-09-07 04:30:00,61.4,52.3,30.04,SSE,157,0.0,1.0,72,0.00,,---,0.00,VWS V14.01,2013-09-07 08:30:00,
2013-09-07 04:31:00,61.4,52.3,30.04,SSE,157,0.0,0.0,72,0.00,,---,0.00,VWS V14.01,2013-09-07 08:31:00,
2013-09-07 04:36:00,61.2,52.1,30.04,SSE,157,0.0,2.0,72,0.00,,---,0.00,VWS V14.01,2013-09-07 08:36:00,
2013-09-07 04:40:00,61.2,52.1,30.04,SSW,199,0.0,2.0,72,0.00,,---,0.00,VWS V14.01,2013-09-07 08:40:00,
2013-09-07 04:41:00,61.2,52.1,30.04,SSW,199,0.0,0.0,72,0.00,,---,0.00,VWS V14.01,2013-09-07 08:41:00,
2013-09-07 04:46:00,61.1,52.0,30.04,SSW,199,0.0,0.0,72,0.00,,---,0.00,VWS V14.01,2013-09-07 08:46:00,
2013-09-07 04:50:00,60.9,51.8,30.04,SSW,199,0.0,1.0,72,0.00,,---,0.00,VWS V14.01,2013-09-07 08:50:00,
2013-09-07 04:51:00,60.9,51.8,30.04,SSW,199,0.0,0.0,72,0.00,,---,0.00,VWS V14.01,2013-09-07 08:51:00,
2013-09-07 04:56:00,60.9,51.8,30.04,SSW,199,0.0,0.0,72,0.00,,---,0.00,VWS V14.01,2013-09-07 08:56:00,
2013-09-07 05:00:00,60.8,51.7,30.03,SSW,199,0.0,0.0,72,0.00,,---,0.00,VWS V14.01,2013-09-07 09:00:00,
2013-09-07 05:01:00,60.8,51.7,30.03,SSW,199,0.0,0.0,72,0.00,,---,0.00,VWS V14.01,2013-09-07 09:01:00,
2013-09-07 05:06:00,60.6,51.5,30.03,SSW,199,0.0,0.0,72,0.00,,---,0.00,VWS V14.01,2013-09-07 09:06:00,
2013-09-07 05:10:00,60.5,51.4,30.03,SSW,199,0.0,2.0,72,0.00,,---,0.00,VWS V14.01,2013-09-07 09:10:00,
2013-09-07 05:11:00,60.5,51.4,30.03,SSW,199,0.0,0.0,72,0.00,,---,0.00,VWS V14.01,2013-09-07 09:11:00,
2013-09-07 05:16:00,60.3,51.6,30.03,SSW,199,0.0,0.0,73,0.00,,---,0.00,VWS V14.01,2013-09-07 09:16:00,
2013-09-07 05:20:00,60.3,51.6,30.03,SSW,199,0.0,0.0,73,0.00,,---,0.00,VWS V14.01,2013-09-07 09:20:00,
2013-09-07 05:21:00,60.3,51.6,30.03,SSW,199,0.0,0.0,73,0.00,,---,0.00,VWS V14.01,2013-09-07 09:21:00,
2013-09-07 05:26:00,60.2,51.5,30.03,SSW,199,0.0,0.0,73,0.00,,---,0.00,VWS V14.01,2013-09-07 09:26:00,
2013-09-07 05:30:00,60.2,51.5,30.02,SSW,199,0.0,0.0,73,0.00,,---,0.00,VWS V14.01,2013-09-07 09:30:00,
2013-09-07 05:31:00,60.2,51.5,30.02,SSW,199,0.0,0.0,73,0.00,,---,0.00,VWS V14.01,2013-09-07 09:31:00,
2013-09-07 05:36:00,60.0,51.7,30.02,SSW,199,0.0,0.0,74,0.00,,---,0.00,VWS V14.01,2013-09-07 09:36:00,
2013-09-07 05:40:00,59.9,51.6,30.02,SSW,199,0.0,0.0,74,0.00,,---,0.00,VWS V14.01,2013-09-07 09:40:00,
2013-09-07 05:41:00,59.9,51.6,30.02,SSW,199,0.0,0.0,74,0.00,,---,0.00,VWS V14.01,2013-09-07 09:41:00,
2013-09-07 05:46:00,59.9,51.6,30.02,SSW,199,0.0,0.0,74,0.00,,---,0.00,VWS V14.01,2013-09-07 09:46:00,
2013-09-07 05:50:00,59.7,51.4,30.02,SSW,199,0.0,0.0,74,0.00,,---,0.00,VWS V14.01,2013-09-07 09:50:00,
2013-09-07 05:51:00,59.7,51.4,30.02,SSW,199,0.0,0.0,74,0.00,,---,0.00,VWS V14.01,2013-09-07 09:51:00,
2013-09-07 05:56:00,59.7,51.4,30.02,SSW,199,0.0,0.0,74,0.00,,---,0.00,VWS V14.01,2013-09-07 09:56:00,
2013-09-07 06:00:00,59.7,51.4,30.02,SSW,199,0.0,0.0,74,0.00,,---,0.00,VWS V14.01,2013-09-07 10:00:00,
2013-09-07 06:01:00,59.7,51.4,30.02,SSW,199,0.0,0.0,74,0.00,,---,0.00,VWS V14.01,2013-09-07 10:01:00,
2013-09-07 06:06:00,59.7,51.4,30.02,SSW,199,0.0,1.0,74,0.00,,---,0.00,VWS V14.01,2013-09-07 10:06:00,
2013-09-07 06:10:00,59.6,51.3,30.02,SSW,199,0.0,1.0,74,0.00,,---,0.00,VWS V14.01,2013-09-07 10:10:00,
2013-09-07 06:11:00,59.6,51.7,30.02,SSW,199,0.0,0.0,75,0.00,,---,0.00,VWS V14.01,2013-09-07 10:11:00,
2013-09-07 06:16:00,59.6,51.7,30.02,SSW,199,0.0,0.0,75,0.00,,---,0.00,VWS V14.01,2013-09-07 10:16:00,
2013-09-07 06:20:00,59.6,51.3,30.02,SSW,199,0.0,0.0,74,0.00,,---,0.00,VWS V14.01,2013-09-07 10:20:00,
2013-09-07 06:21:00,59.6,51.3,30.02,SSW,199,0.0,0.0,74,0.00,,---,0.00,VWS V14.01,2013-09-07 10:21:00,
2013-09-07 06:26:00,59.7,51.4,30.02,SSW,199,0.0,0.0,74,0.00,,---,0.00,VWS V14.01,2013-09-07 10:26:00,
2013-09-07 06:30:00,59.7,51.4,30.02,SSW,199,0.0,0.0,74,0.00,,---,0.00,VWS V14.01,2013-09-07 10:30:00,
2013-09-07 06:31:00,59.7,51.4,30.02,SSW,199,0.0,0.0,74,0.00,,---,0.00,VWS V14.01,2013-09-07 10:31:00,
2013-09-07 06:36:00,59.6,51.3,30.02,SSW,199,0.0,0.0,74,0.00,,---,0.00,VWS V14.01,2013-09-07 10:36:00,
2013-09-07 06:40:00,59.6,51.3,30.02,SSW,192,0.0,1.0,74,0.00,,---,0.00,VWS V14.01,2013-09-07 10:40:00,
2013-09-07 06:41:00,59.6,51.3,30.02,SSW,192,0.0,0.0,74,0.00,,---,0.00,VWS V14.01,2013-09-07 10:41:00,
2013-09-07 06:46:00,59.4,51.1,30.02,SSW,192,0.0,0.0,74,0.00,,---,0.00,VWS V14.01,2013-09-07 10:46:00,
2013-09-07 06:50:00,59.4,51.1,30.02,SSW,192,0.0,0.0,74,0.00,,---,0.00,VWS V14.01,2013-09-07 10:50:00,
2013-09-07 06:51:00,59.4,51.1,30.02,SSW,192,0.0,0.0,74,0.00,,---,0.00,VWS V14.01,2013-09-07 10:51:00,
2013-09-07 06:56:00,59.3,51.0,30.02,SSW,192,0.0,0.0,74,0.00,,---,0.00,VWS V14.01,2013-09-07 10:56:00,
2013-09-07 07:00:00,59.3,51.4,30.02,SSW,192,0.0,0.0,75,0.00,,---,0.00,VWS V14.01,2013-09-07 11:00:00,
2013-09-07 07:01:00,59.3,51.4,30.02,SSW,192,0.0,0.0,75,0.00,,---,0.00,VWS V14.01,2013-09-07 11:01:00,
2013-09-07 07:06:00,59.1,51.2,30.02,SSW,192,0.0,0.0,75,0.00,,---,0.00,VWS V14.01,2013-09-07 11:06:00,
2013-09-07 07:10:00,59.1,51.2,30.02,SSW,192,0.0,0.0,75,0.00,,---,0.00,VWS V14.01,2013-09-07 11:10:00,
2013-09-07 07:11:00,59.1,51.2,30.02,SSW,192,0.0,0.0,75,0.00,,---,0.00,VWS V14.01,2013-09-07 11:11:00,
2013-09-07 07:16:00,59.0,51.1,30.02,SSW,192,0.0,0.0,75,0.00,,---,0.00,VWS V14.01,2013-09-07 11:16:00,
2013-09-07 07:20:00,59.0,51.1,30.02,SSW,192,0.0,0.0,75,0.00,,---,0.00,VWS V14.01,2013-09-07 11:20:00,
2013-09-07 07:21:00,59.0,51.1,30.02,SSW,192,0.0,0.0,75,0.00,,---,0.00,VWS V14.01,2013-09-07 11:21:00,
2013-09-07 07:26:00,59.0,51.5,30.02,SSW,192,0.0,0.0,76,0.00,,---,0.00,VWS V14.01,2013-09-07 11:26:00,
2013-09-07 07:30:00,59.0,51.1,30.02,SSW,192,0.0,0.0,75,0.00,,---,0.00,VWS V14.01,2013-09-07 11:30:00,
2013-09-07 07:31:00,59.0,51.1,30.02,SSW,192,0.0,0.0,75,0.00,,---,0.00,VWS V14.01,2013-09-07 11:31:00,
2013-09-07 07:36:00,59.1,51.2,30.02,SSW,192,0.0,0.0,75,0.00,,---,0.00,VWS V14.01,2013-09-07 11:36:00,
2013-09-07 07:40:00,59.3,51.4,30.02,SSW,192,0.0,0.0,75,0.00,,---,0.00,VWS V14.01,2013-09-07 11:40:00,
2013-09-07 07:41:00,59.3,51.4,30.02,SSW,192,0.0,0.0,75,0.00,,---,0.00,VWS V14.01,2013-09-07 11:41:00,
2013-09-07 07:46:00,59.4,51.8,30.02,SSW,192,0.0,0.0,76,0.00,,---,0.00,VWS V14.01,2013-09-07 11:46:00,
2013-09-07 07:50:00,59.7,51.8,30.02,SSW,192,0.0,0.0,75,0.00,,---,0.00,VWS V14.01,2013-09-07 11:50:00,
2013-09-07 07:51:00,59.7,51.8,30.02,SSW,192,0.0,0.0,75,0.00,,---,0.00,VWS V14.01,2013-09-07 11:51:00,
2013-09-07 07:56:00,60.0,52.1,30.02,SSW,192,0.0,0.0,75,0.00,,---,0.00,VWS V14.01,2013-09-07 11:56:00,
2013-09-07 08:00:00,60.3,52.7,30.02,SSW,192,0.0,0.0,76,0.00,,---,0.00,VWS V14.01,2013-09-07 12:00:00,
2013-09-07 08:01:00,60.3,52.7,30.02,SSW,192,0.0,0.0,76,0.00,,---,0.00,VWS V14.01,2013-09-07 12:01:00,
2013-09-07 08:06:00,60.6,52.3,30.02,SSW,192,0.0,0.0,74,0.00,,---,0.00,VWS V14.01,2013-09-07 12:06:00,
2013-09-07 08:10:00,60.8,52.1,30.02,SSW,192,0.0,0.0,73,0.00,,---,0.00,VWS V14.01,2013-09-07 12:10:00,
2013-09-07 08:11:00,60.9,52.2,30.02,SSW,192,0.0,0.0,73,0.00,,---,0.00,VWS V14.01,2013-09-07 12:11:00,
2013-09-07 08:16:00,61.1,52.4,30.02,SSW,192,0.0,0.0,73,0.00,,---,0.00,VWS V14.01,2013-09-07 12:16:00,
2013-09-07 08:20:00,61.4,52.7,30.02,SSW,192,0.0,0.0,73,0.00,,---,0.00,VWS V14.01,2013-09-07 12:20:00,
2013-09-07 08:21:00,61.4,52.7,30.02,SSW,192,0.0,0.0,73,0.00,,---,0.00,VWS V14.01,2013-09-07 12:21:00,
2013-09-07 08:26:00,61.7,53.0,30.02,SSW,192,0.0,0.0,73,0.00,,---,0.00,VWS V14.01,2013-09-07 12:26:00,
2013-09-07 08:30:00,61.9,53.2,30.01,SSW,192,0.0,0.0,73,0.00,,---,0.00,VWS V14.01,2013-09-07 12:30:00,
2013-09-07 08:31:00,62.0,53.3,30.01,SSW,192,0.0,0.0,73,0.00,,---,0.00,VWS V14.01,2013-09-07 12:31:00,
2013-09-07 08:36:00,62.5,54.1,30.01,SSW,192,0.0,0.0,74,0.00,,---,0.00,VWS V14.01,2013-09-07 12:36:00,
2013-09-07 08:40:00,62.8,54.0,30.01,SSW,192,0.0,0.0,73,0.00,,---,0.00,VWS V14.01,2013-09-07 12:40:00,
2013-09-07 08:41:00,63.0,54.2,30.01,SSW,192,0.0,0.0,73,0.00,,---,0.00,VWS V14.01,2013-09-07 12:41:00,
2013-09-07 08:46:00,63.6,54.4,30.01,SSW,192,0.0,0.0,72,0.00,,---,0.00,VWS V14.01,2013-09-07 12:46:00,
2013-09-07 08:50:00,63.9,54.7,30.01,SSW,192,0.0,1.0,72,0.00,,---,0.00,VWS V14.01,2013-09-07 12:50:00,
2013-09-07 08:51:00,64.1,54.9,30.01,SSW,192,0.0,0.0,72,0.00,,---,0.00,VWS V14.01,2013-09-07 12:51:00,
2013-09-07 08:56:00,64.7,55.5,30.01,SSW,192,0.0,0.0,72,0.00,,---,0.00,VWS V14.01,2013-09-07 12:56:00,
2013-09-07 09:00:00,65.2,56.0,30.00,SSW,192,0.0,0.0,72,0.00,,---,0.00,VWS V14.01,2013-09-07 13:00:00,
2013-09-07 09:01:00,65.3,56.0,30.00,SSW,192,0.0,0.0,72,0.00,,---,0.00,VWS V14.01,2013-09-07 13:01:00,
2013-09-07 09:06:00,65.8,55.8,30.00,SSW,192,0.0,0.0,70,0.00,,---,0.00,VWS V14.01,2013-09-07 13:06:00,
2013-09-07 09:10:00,66.3,56.2,30.00,SSW,192,0.0,0.0,70,0.00,,---,0.00,VWS V14.01,2013-09-07 13:10:00,
2013-09-07 09:11:00,66.5,56.0,30.00,SSW,192,0.0,0.0,69,0.00,,---,0.00,VWS V14.01,2013-09-07 13:11:00,
2013-09-07 09:16:00,67.0,56.5,30.00,SSW,192,0.0,0.0,69,0.00,,---,0.00,VWS V14.01,2013-09-07 13:16:00,
2013-09-07 09:20:00,67.3,56.8,30.00,SSW,192,0.0,0.0,69,0.00,,---,0.00,VWS V14.01,2013-09-07 13:20:00,
2013-09-07 09:21:00,67.4,56.9,30.00,SSW,192,0.0,0.0,69,0.00,,---,0.00,VWS V14.01,2013-09-07 13:21:00,
2013-09-07 09:26:00,67.9,57.0,30.00,SSW,192,0.0,0.0,68,0.00,,---,0.00,VWS V14.01,2013-09-07 13:26:00,
2013-09-07 09:30:00,68.3,56.9,29.99,SSW,192,0.0,0.0,67,0.00,,---,0.00,VWS V14.01,2013-09-07 13:30:00,
2013-09-07 09:31:00,68.4,57.0,29.99,SSW,192,0.0,0.0,67,0.00,,---,0.00,VWS V14.01,2013-09-07 13:31:00,
2013-09-07 09:36:00,68.9,57.9,29.99,South,184,0.0,0.0,68,0.00,,---,0.00,VWS V14.01,2013-09-07 13:36:00,
2013-09-07 09:40:00,69.4,58.0,29.99,South,181,0.0,0.0,67,0.00,,---,0.00,VWS V14.01,2013-09-07 13:40:00,
2013-09-07 09:41:00,69.6,58.2,29.99,South,181,0.0,0.0,67,0.00,,---,0.00,VWS V14.01,2013-09-07 13:41:00,
2013-09-07 09:46:00,70.1,58.7,29.99,South,179,0.0,0.0,67,0.00,,---,0.00,VWS V14.01,2013-09-07 13:46:00,
2013-09-07 09:50:00,70.4,58.5,29.99,South,179,0.0,0.0,66,0.00,,---,0.00,VWS V14.01,2013-09-07 13:50:00,
2013-09-07 09:51:00,70.6,58.7,29.99,South,179,0.0,0.0,66,0.00,,---,0.00,VWS V14.01,2013-09-07 13:51:00,
2013-09-07 09:56:00,71.3,59.4,29.99,WSW,253,1.0,2.0,66,0.00,,---,0.00,VWS V14.01,2013-09-07 13:56:00,
2013-09-07 10:00:00,71.8,59.4,29.99,WSW,254,3.0,7.0,65,0.00,,---,0.00,VWS V14.01,2013-09-07 14:00:00,
2013-09-07 10:01:00,72.1,59.3,29.99,WNW,287,2.0,5.0,64,0.00,,---,0.00,VWS V14.01,2013-09-07 14:01:00,
2013-09-07 10:07:00,72.8,59.0,29.99,NW,305,1.0,10.0,62,0.00,,---,0.00,VWS V14.01,2013-09-07 14:07:00,
2013-09-07 10:10:00,73.1,59.8,29.99,West,267,4.0,10.0,63,0.00,,---,0.00,VWS V14.01,2013-09-07 14:10:00,
2013-09-07 10:12:00,73.3,59.5,29.99,West,268,0.0,5.0,62,0.00,,---,0.00,VWS V14.01,2013-09-07 14:12:00,
2013-09-07 10:17:00,73.7,59.9,29.99,NW,304,0.0,7.0,62,0.00,,---,0.00,VWS V14.01,2013-09-07 14:17:00,
2013-09-07 10:20:00,74.0,59.7,29.99,NW,309,6.0,7.0,61,0.00,,---,0.00,VWS V14.01,2013-09-07 14:20:00,
2013-09-07 10:22:00,74.0,59.7,29.99,WNW,301,3.0,7.0,61,0.00,,---,0.00,VWS V14.01,2013-09-07 14:22:00,
2013-09-07 10:27:00,74.3,60.0,29.99,SSW,212,0.0,7.0,61,0.00,,---,0.00,VWS V14.01,2013-09-07 14:27:00,
2013-09-07 10:30:00,74.5,60.2,29.98,SSW,195,3.0,7.0,61,0.00,,---,0.00,VWS V14.01,2013-09-07 14:30:00,
2013-09-07 10:32:00,74.7,60.4,29.98,SW,227,0.0,3.0,61,0.00,,---,0.00,VWS V14.01,2013-09-07 14:32:00,
2013-09-07 10:37:00,74.9,60.6,29.98,WSW,248,2.0,3.0,61,0.00,,---,0.00,VWS V14.01,2013-09-07 14:37:00,
2013-09-07 10:40:00,75.0,60.7,29.98,WSW,246,2.0,7.0,61,0.00,,---,0.00,VWS V14.01,2013-09-07 14:40:00,
2013-09-07 10:42:00,75.0,60.2,29.98,NNW,328,8.0,8.0,60,0.00,,---,0.00,VWS V14.01,2013-09-07 14:42:00,
2013-09-07 10:47:00,75.4,60.1,29.98,SW,233,2.0,8.0,59,0.00,,---,0.00,VWS V14.01,2013-09-07 14:47:00,
2013-09-07 10:50:00,75.7,60.4,29.98,West,270,2.0,8.0,59,0.00,,---,0.00,VWS V14.01,2013-09-07 14:50:00,
2013-09-07 10:52:00,75.7,60.4,29.98,West,281,4.0,7.0,59,0.00,,---,0.00,VWS V14.01,2013-09-07 14:52:00,
2013-09-07 10:57:00,76.3,60.9,29.98,WNW,295,0.0,7.0,59,0.00,,---,0.00,VWS V14.01,2013-09-07 14:57:00,
2013-09-07 11:00:00,76.6,60.7,29.97,West,277,1.0,7.0,58,0.00,,---,0.00,VWS V14.01,2013-09-07 15:00:00,
2013-09-07 11:02:00,76.8,60.9,29.97,NW,309,2.0,6.0,58,0.00,,---,0.00,VWS V14.01,2013-09-07 15:02:00,
2013-09-07 11:07:00,77.0,61.1,29.97,West,265,2.0,7.0,58,0.00,,---,0.00,VWS V14.01,2013-09-07 15:07:00,
2013-09-07 11:10:00,76.8,60.9,29.97,SW,215,4.0,9.0,58,0.00,,---,0.00,VWS V14.01,2013-09-07 15:10:00,
2013-09-07 11:12:00,76.8,60.9,29.97,WNW,287,2.0,6.0,58,0.00,,---,0.00,VWS V14.01,2013-09-07 15:12:00,
2013-09-07 11:17:00,76.6,61.7,29.98,WNW,299,1.0,6.0,60,0.00,,---,0.00,VWS V14.01,2013-09-07 15:17:00,
2013-09-07 11:20:00,76.6,61.7,29.98,North,352,2.0,6.0,60,0.00,,---,0.00,VWS V14.01,2013-09-07 15:20:00,
2013-09-07 11:22:00,76.6,61.7,29.98,NNW,333,0.0,2.0,60,0.00,,---,0.00,VWS V14.01,2013-09-07 15:22:00,
2013-09-07 11:27:00,77.0,61.6,29.98,WSW,244,3.0,7.0,59,0.00,,---,0.00,VWS V14.01,2013-09-07 15:27:00,
2013-09-07 11:30:00,77.1,62.2,29.98,NW,309,7.0,7.0,60,0.00,,---,0.00,VWS V14.01,2013-09-07 15:30:00,
2013-09-07 11:32:00,77.3,61.9,29.98,WNW,284,5.0,7.0,59,0.00,,---,0.00,VWS V14.01,2013-09-07 15:32:00,
2013-09-07 11:37:00,77.7,62.2,29.98,WNW,282,3.0,7.0,59,0.00,,---,0.00,VWS V14.01,2013-09-07 15:37:00,
2013-09-07 11:40:00,77.8,62.3,29.98,SW,232,0.0,7.0,59,0.00,,---,0.00,VWS V14.01,2013-09-07 15:40:00,
2013-09-07 11:42:00,78.0,62.5,29.98,WNW,291,0.0,4.0,59,0.00,,---,0.00,VWS V14.01,2013-09-07 15:42:00,
2013-09-07 11:47:00,78.6,63.1,29.98,NW,306,4.0,13.0,59,0.00,,---,0.00,VWS V14.01,2013-09-07 15:47:00,
2013-09-07 11:50:00,79.1,63.1,29.98,SSW,213,4.0,13.0,58,0.00,,---,0.00,VWS V14.01,2013-09-07 15:50:00,
2013-09-07 11:52:00,79.3,63.3,29.98,NW,309,1.0,7.0,58,0.00,,---,0.00,VWS V14.01,2013-09-07 15:52:00,
2013-09-07 11:57:00,80.0,63.4,29.98,WNW,292,10.0,10.0,57,0.00,,---,0.00,VWS V14.01,2013-09-07 15:57:00,
2013-09-07 12:00:00,80.2,63.1,29.98,WNW,296,4.0,10.0,56,0.00,,---,0.00,VWS V14.01,2013-09-07 16:00:00,
2013-09-07 12:02:00,80.4,63.8,29.98,WSW,258,2.0,4.0,57,0.00,,---,0.00,VWS V14.01,2013-09-07 16:02:00,
2013-09-07 12:07:00,80.6,63.0,29.98,NNW,339,8.0,11.0,55,0.00,,---,0.00,VWS V14.01,2013-09-07 16:07:00,
2013-09-07 12:10:00,80.6,63.0,29.98,ESE,121,0.0,11.0,55,0.00,,---,0.00,VWS V14.01,2013-09-07 16:10:00,
2013-09-07 12:12:00,80.6,63.5,29.98,West,272,4.0,7.0,56,0.00,,---,0.00,VWS V14.01,2013-09-07 16:12:00,
2013-09-07 12:17:00,80.8,63.7,29.97,West,272,0.0,8.0,56,0.00,,---,0.00,VWS V14.01,2013-09-07 16:17:00,
2013-09-07 12:20:00,80.9,63.2,29.97,NW,311,3.0,10.0,55,0.00,,---,0.00,VWS V14.01,2013-09-07 16:20:00,
2013-09-07 12:22:00,81.1,63.9,29.97,NW,306,2.0,3.0,56,0.00,,---,0.00,VWS V14.01,2013-09-07 16:22:00,
2013-09-07 12:27:00,81.9,63.6,29.97,WNW,284,8.0,16.0,54,0.00,,---,0.00,VWS V14.01,2013-09-07 16:27:00,
2013-09-07 12:30:00,81.3,63.6,29.97,SW,233,2.0,16.0,55,0.00,,---,0.00,VWS V14.01,2013-09-07 16:30:00,
2013-09-07 12:32:00,81.1,63.4,29.97,West,280,5.0,8.0,55,0.00,,---,0.00,VWS V14.01,2013-09-07 16:32:00,
2013-09-07 12:37:00,80.9,63.8,29.97,WSW,246,1.0,8.0,56,0.00,,---,0.00,VWS V14.01,2013-09-07 16:37:00,
2013-09-07 12:40:00,80.9,63.8,29.97,WSW,243,0.0,8.0,56,0.00,,---,0.00,VWS V14.01,2013-09-07 16:40:00,
2013-09-07 12:42:00,80.9,64.2,29.97,West,278,4.0,7.0,57,0.00,,---,0.00,VWS V14.01,2013-09-07 16:42:00,
2013-09-07 12:47:00,81.1,62.9,29.97,WSW,239,0.0,11.0,54,0.00,,---,0.00,VWS V14.01,2013-09-07 16:47:00,
2013-09-07 12:50:00,80.9,63.8,29.97,WNW,291,0.0,11.0,56,0.00,,---,0.00,VWS V14.01,2013-09-07 16:50:00,
2013-09-07 12:52:00,80.9,64.2,29.97,SSW,199,2.0,3.0,57,0.00,,---,0.00,VWS V14.01,2013-09-07 16:52:00,
2013-09-07 12:57:00,80.6,63.5,29.97,NW,316,6.0,6.0,56,0.00,,---,0.00,VWS V14.01,2013-09-07 16:57:00,
2013-09-07 13:00:00,80.2,63.6,29.96,WSW,258,2.0,6.0,57,0.00,,---,0.00,VWS V14.01,2013-09-07 17:00:00,
2013-09-07 13:02:00,80.0,63.4,29.96,West,260,0.0,2.0,57,0.00,,---,0.00,VWS V14.01,2013-09-07 17:02:00,
2013-09-07 13:07:00,79.6,63.5,29.96,SSW,210,0.0,4.0,58,0.00,,---,0.00,VWS V14.01,2013-09-07 17:07:00,
2013-09-07 13:10:00,79.5,63.9,29.96,SSW,209,1.0,4.0,59,0.00,,---,0.00,VWS V14.01,2013-09-07 17:10:00,
2013-09-07 13:12:00,79.3,63.7,29.96,West,265,1.0,3.0,59,0.00,,---,0.00,VWS V14.01,2013-09-07 17:12:00,
2013-09-07 13:17:00,78.9,63.8,29.96,SSW,206,0.0,3.0,60,0.00,,---,0.00,VWS V14.01,2013-09-07 17:17:00,
2013-09-07 13:20:00,78.9,64.3,29.96,SSW,206,0.0,3.0,61,0.00,,---,0.00,VWS V14.01,2013-09-07 17:20:00,
2013-09-07 13:22:00,78.9,64.3,29.96,NW,312,2.0,2.0,61,0.00,,---,0.00,VWS V14.01,2013-09-07 17:22:00,
2013-09-07 13:27:00,78.9,64.3,29.96,NW,312,3.0,3.0,61,0.00,,---,0.00,VWS V14.01,2013-09-07 17:27:00,
2013-09-07 13:30:00,78.9,65.2,29.96,NW,312,0.0,3.0,63,0.00,,---,0.00,VWS V14.01,2013-09-07 17:30:00,
2013-09-07 13:32:00,78.7,65.1,29.96,NW,311,0.0,0.0,63,0.00,,---,0.00,VWS V14.01,2013-09-07 17:32:00,
2013-09-07 13:37:00,78.4,65.2,29.96,NW,311,0.0,0.0,64,0.00,,---,0.00,VWS V14.01,2013-09-07 17:37:00,
2013-09-07 13:40:00,77.8,65.1,29.96,NW,306,0.0,1.0,65,0.00,,---,0.00,VWS V14.01,2013-09-07 17:40:00,
2013-09-07 13:42:00,77.7,65.4,29.96,NW,306,0.0,0.0,66,0.00,,---,0.00,VWS V14.01,2013-09-07 17:42:00,
2013-09-07 13:47:00,77.1,66.2,29.95,NW,306,0.0,0.0,69,0.01,,---,0.01,VWS V14.01,2013-09-07 17:47:00,
2013-09-07 13:50:00,76.8,66.3,29.95,NW,306,0.0,0.0,70,0.01,,---,0.01,VWS V14.01,2013-09-07 17:50:00,
2013-09-07 13:52:00,76.6,66.5,29.95,NW,306,0.0,0.0,71,0.02,,---,0.02,VWS V14.01,2013-09-07 17:52:00,
2013-09-07 13:57:00,76.1,67.2,29.95,NW,306,0.0,0.0,74,0.02,,---,0.02,VWS V14.01,2013-09-07 17:57:00,
2013-09-07 14:00:00,75.7,67.2,29.96,NW,306,0.0,0.0,75,0.03,,---,0.03,VWS V14.01,2013-09-07 18:00:00,
2013-09-07 14:02:00,75.6,67.5,29.96,NW,306,0.0,0.0,76,0.03,,---,0.03,VWS V14.01,2013-09-07 18:02:00,
2013-09-07 14:07:00,75.2,67.5,29.96,NW,306,0.0,0.0,77,0.03,,---,0.03,VWS V14.01,2013-09-07 18:07:00,
2013-09-07 14:10:00,75.0,67.7,29.96,NW,306,0.0,0.0,78,0.04,,---,0.04,VWS V14.01,2013-09-07 18:10:00,
2013-09-07 14:12:00,74.9,67.9,29.96,NW,306,0.0,0.0,79,0.04,,---,0.04,VWS V14.01,2013-09-07 18:12:00,
2013-09-07 14:17:00,74.9,68.7,29.95,NW,306,0.0,0.0,81,0.05,,---,0.05,VWS V14.01,2013-09-07 18:17:00,
2013-09-07 14:20:00,74.7,68.5,29.95,NW,306,0.0,0.0,81,0.06,,---,0.06,VWS V14.01,2013-09-07 18:20:00,
2013-09-07 14:22:00,74.5,68.7,29.95,NW,306,0.0,0.0,82,0.06,,---,0.06,VWS V14.01,2013-09-07 18:22:00,
2013-09-07 14:27:00,74.2,69.1,29.95,NW,306,0.0,0.0,84,0.06,,---,0.06,VWS V14.01,2013-09-07 18:27:00,
2013-09-07 14:30:00,74.2,69.4,29.95,NW,306,0.0,0.0,85,0.07,,---,0.07,VWS V14.01,2013-09-07 18:30:00,
2013-09-07 14:32:00,74.0,69.2,29.95,NW,306,0.0,0.0,85,0.07,,---,0.07,VWS V14.01,2013-09-07 18:32:00,
2013-09-07 14:37:00,73.7,69.6,29.95,NW,306,0.0,0.0,87,0.07,,---,0.07,VWS V14.01,2013-09-07 18:37:00,
2013-09-07 14:40:00,73.5,69.4,29.95,NW,306,0.0,0.0,87,0.07,,---,0.07,VWS V14.01,2013-09-07 18:40:00,
2013-09-07 14:42:00,73.5,69.7,29.95,NW,306,0.0,0.0,88,0.07,,---,0.07,VWS V14.01,2013-09-07 18:42:00,
2013-09-07 14:47:00,73.7,70.3,29.94,NW,306,0.0,0.0,89,0.07,,---,0.07,VWS V14.01,2013-09-07 18:47:00,
2013-09-07 14:50:00,73.7,70.3,29.94,NW,306,0.0,0.0,89,0.07,,---,0.07,VWS V14.01,2013-09-07 18:50:00,
2013-09-07 14:52:00,73.8,70.4,29.94,NW,306,0.0,0.0,89,0.06,,---,0.07,VWS V14.01,2013-09-07 18:52:00,
2013-09-07 14:57:00,73.8,70.0,29.94,NW,306,0.0,2.0,88,0.06,,---,0.07,VWS V14.01,2013-09-07 18:57:00,
2013-09-07 15:00:00,73.7,69.9,29.94,NW,306,0.0,2.0,88,0.06,,---,0.07,VWS V14.01,2013-09-07 19:00:00,
2013-09-07 15:03:00,73.7,69.6,29.94,NW,306,0.0,0.0,87,0.04,,---,0.07,VWS V14.01,2013-09-07 19:03:00,
2013-09-07 15:08:00,73.7,69.3,29.94,NW,306,0.0,2.0,86,0.04,,---,0.07,VWS V14.01,2013-09-07 19:08:00,
2013-09-07 15:10:00,73.7,69.3,29.94,NW,306,0.0,2.0,86,0.04,,---,0.07,VWS V14.01,2013-09-07 19:10:00,
2013-09-07 15:13:00,73.7,69.3,29.94,NW,306,0.0,0.0,86,0.03,,---,0.07,VWS V14.01,2013-09-07 19:13:00,
2013-09-07 15:18:00,73.8,69.0,29.94,NW,305,0.0,0.0,85,0.03,,---,0.07,VWS V14.01,2013-09-07 19:18:00,
2013-09-07 15:20:00,73.8,68.7,29.94,NW,305,0.0,0.0,84,0.03,,---,0.07,VWS V14.01,2013-09-07 19:20:00,
2013-09-07 15:23:00,74.0,68.9,29.94,NW,305,0.0,0.0,84,0.01,,---,0.07,VWS V14.01,2013-09-07 19:23:00,
2013-09-07 15:28:00,74.0,68.9,29.94,NW,305,0.0,3.0,84,0.01,,---,0.07,VWS V14.01,2013-09-07 19:28:00,
2013-09-07 15:30:00,74.0,68.9,29.94,NW,305,0.0,3.0,84,0.01,,---,0.07,VWS V14.01,2013-09-07 19:30:00,
2013-09-07 15:33:00,74.2,69.1,29.94,NW,305,0.0,0.0,84,0.00,,---,0.07,VWS V14.01,2013-09-07 19:33:00,
2013-09-07 15:38:00,74.2,69.4,29.94,NW,305,0.0,0.0,85,0.00,,---,0.07,VWS V14.01,2013-09-07 19:38:00,
2013-09-07 15:40:00,74.2,69.1,29.94,NW,305,0.0,0.0,84,0.00,,---,0.07,VWS V14.01,2013-09-07 19:40:00,
2013-09-07 15:43:00,74.2,69.1,29.94,NW,305,0.0,0.0,84,0.00,,---,0.07,VWS V14.01,2013-09-07 19:43:00,
2013-09-07 15:48:00,74.2,69.1,29.93,NW,315,0.0,5.0,84,0.00,,---,0.07,VWS V14.01,2013-09-07 19:48:00,
2013-09-07 15:50:00,74.2,68.7,29.93,NW,315,0.0,5.0,83,0.00,,---,0.07,VWS V14.01,2013-09-07 19:50:00,
2013-09-07 15:53:00,74.2,68.7,29.93,NW,315,0.0,0.0,83,0.00,,---,0.07,VWS V14.01,2013-09-07 19:53:00,
2013-09-07 15:58:00,74.2,68.4,29.93,NW,315,0.0,3.0,82,0.00,,---,0.07,VWS V14.01,2013-09-07 19:58:00,
2013-09-07 16:00:00,74.2,68.4,29.93,NW,315,0.0,3.0,82,0.00,,---,0.07,VWS V14.01,2013-09-07 20:00:00,
2013-09-07 16:03:00,74.2,68.4,29.93,NW,315,0.0,0.0,82,0.00,,---,0.07,VWS V14.01,2013-09-07 20:03:00,
2013-09-07 16:08:00,74.2,68.7,29.93,NW,315,0.0,0.0,83,0.00,,---,0.07,VWS V14.01,2013-09-07 20:08:00,
2013-09-07 16:10:00,74.2,68.7,29.93,NW,315,0.0,0.0,83,0.00,,---,0.07,VWS V14.01,2013-09-07 20:10:00,
2013-09-07 16:13:00,74.2,69.1,29.93,NW,315,0.0,0.0,84,0.00,,---,0.07,VWS V14.01,2013-09-07 20:13:00,
2013-09-07 16:18:00,74.0,68.5,29.92,NW,315,0.0,0.0,83,0.00,,---,0.07,VWS V14.01,2013-09-07 20:18:00,
2013-09-07 16:20:00,73.8,68.3,29.92,NW,312,0.0,0.0,83,0.00,,---,0.07,VWS V14.01,2013-09-07 20:20:00,
2013-09-07 16:23:00,73.8,68.3,29.92,NW,312,0.0,0.0,83,0.00,,---,0.07,VWS V14.01,2013-09-07 20:23:00,
2013-09-07 16:28:00,73.8,68.7,29.92,NW,312,0.0,0.0,84,0.00,,---,0.07,VWS V14.01,2013-09-07 20:28:00,
2013-09-07 16:30:00,73.8,68.7,29.92,NW,312,0.0,0.0,84,0.00,,---,0.07,VWS V14.01,2013-09-07 20:30:00,
2013-09-07 16:33:00,73.8,68.7,29.92,NW,312,0.0,0.0,84,0.00,,---,0.07,VWS V14.01,2013-09-07 20:33:00,
2013-09-07 16:38:00,74.0,68.9,29.92,NW,312,0.0,0.0,84,0.00,,---,0.07,VWS V14.01,2013-09-07 20:38:00,
2013-09-07 16:40:00,74.0,68.9,29.92,NW,312,0.0,0.0,84,0.00,,---,0.07,VWS V14.01,2013-09-07 20:40:00,
2013-09-07 16:43:00,74.2,68.7,29.92,NW,312,0.0,0.0,83,0.00,,---,0.07,VWS V14.01,2013-09-07 20:43:00,
2013-09-07 16:48:00,74.3,68.8,29.92,NW,312,0.0,0.0,83,0.00,,---,0.07,VWS V14.01,2013-09-07 20:48:00,
2013-09-07 16:50:00,74.5,68.7,29.92,West,264,0.0,2.0,82,0.00,,---,0.07,VWS V14.01,2013-09-07 20:50:00,
2013-09-07 16:53:00,74.9,69.0,29.92,West,264,0.0,0.0,82,0.00,,---,0.07,VWS V14.01,2013-09-07 20:53:00,
2013-09-07 16:58:00,75.2,68.6,29.92,WSW,248,0.0,1.0,80,0.00,,---,0.07,VWS V14.01,2013-09-07 20:58:00,
2013-09-07 17:00:00,75.4,68.1,29.92,SW,222,3.0,5.0,78,0.00,,---,0.07,VWS V14.01,2013-09-07 21:00:00,
2013-09-07 17:03:00,75.7,68.4,29.92,SW,222,0.0,3.0,78,0.00,,---,0.07,VWS V14.01,2013-09-07 21:03:00,
2013-09-07 17:08:00,76.3,68.9,29.92,WNW,291,0.0,3.0,78,0.00,,---,0.07,VWS V14.01,2013-09-07 21:08:00,
2013-09-07 17:10:00,76.4,68.3,29.92,SSW,213,5.0,6.0,76,0.00,,---,0.07,VWS V14.01,2013-09-07 21:10:00,
2013-09-07 17:13:00,76.6,68.1,29.92,South,172,0.0,5.0,75,0.00,,---,0.07,VWS V14.01,2013-09-07 21:13:00,
2013-09-07 17:18:00,76.6,67.3,29.92,WSW,251,3.0,11.0,73,0.00,,---,0.07,VWS V14.01,2013-09-07 21:18:00,
2013-09-07 17:20:00,76.6,67.3,29.92,NW,325,2.0,11.0,73,0.00,,---,0.07,VWS V14.01,2013-09-07 21:20:00,
2013-09-07 17:23:00,76.6,67.3,29.92,SW,236,0.0,2.0,73,0.00,,---,0.07,VWS V14.01,2013-09-07 21:23:00,
2013-09-07 17:28:00,76.6,66.5,29.92,WSW,250,0.0,7.0,71,0.00,,---,0.07,VWS V14.01,2013-09-07 21:28:00,
2013-09-07 17:30:00,76.6,66.5,29.92,SW,226,1.0,7.0,71,0.00,,---,0.07,VWS V14.01,2013-09-07 21:30:00,
2013-09-07 17:33:00,76.6,66.5,29.92,West,280,0.0,4.0,71,0.00,,---,0.07,VWS V14.01,2013-09-07 21:33:00,
2013-09-07 17:38:00,76.6,66.1,29.92,West,272,0.0,6.0,70,0.00,,---,0.07,VWS V14.01,2013-09-07 21:38:00,
2013-09-07 17:40:00,76.6,66.5,29.92,West,272,0.0,6.0,71,0.00,,---,0.07,VWS V14.01,2013-09-07 21:40:00,
2013-09-07 17:43:00,76.6,66.9,29.92,West,271,0.0,0.0,72,0.00,,---,0.07,VWS V14.01,2013-09-07 21:43:00,
2013-09-07 17:48:00,76.3,66.6,29.92,West,271,0.0,0.0,72,0.00,,---,0.07,VWS V14.01,2013-09-07 21:48:00,
2013-09-07 17:50:00,76.3,66.6,29.92,West,271,0.0,0.0,72,0.00,,---,0.07,VWS V14.01,2013-09-07 21:50:00,
2013-09-07 17:53:00,76.3,67.0,29.92,West,271,0.0,0.0,73,0.00,,---,0.07,VWS V14.01,2013-09-07 21:53:00,
2013-09-07 17:58:00,76.1,67.2,29.92,West,271,0.0,0.0,74,0.00,,---,0.07,VWS V14.01,2013-09-07 21:58:00,
2013-09-07 18:00:00,76.1,67.2,29.92,West,271,0.0,0.0,74,0.00,,---,0.07,VWS V14.01,2013-09-07 22:00:00,
2013-09-07 18:03:00,75.9,67.0,29.92,West,271,0.0,0.0,74,0.00,,---,0.07,VWS V14.01,2013-09-07 22:03:00,
2013-09-07 18:08:00,75.7,66.4,29.92,West,271,0.0,0.0,73,0.00,,---,0.07,VWS V14.01,2013-09-07 22:08:00,
2013-09-07 18:10:00,75.7,66.4,29.92,SSE,164,0.0,3.0,73,0.00,,---,0.07,VWS V14.01,2013-09-07 22:10:00,
2013-09-07 18:13:00,75.6,65.9,29.92,NNW,347,0.0,0.0,72,0.00,,---,0.07,VWS V14.01,2013-09-07 22:13:00,
2013-09-07 18:18:00,75.6,65.9,29.92,WSW,248,0.0,0.0,72,0.00,,---,0.07,VWS V14.01,2013-09-07 22:18:00,
2013-09-07 18:20:00,75.6,65.9,29.92,WSW,248,0.0,0.0,72,0.00,,---,0.07,VWS V14.01,2013-09-07 22:20:00,
2013-09-07 18:23:00,75.6,65.9,29.92,SSW,195,0.0,0.0,72,0.00,,---,0.07,VWS V14.01,2013-09-07 22:23:00,
2013-09-07 18:28:00,75.4,65.8,29.92,SSW,213,0.0,0.0,72,0.00,,---,0.07,VWS V14.01,2013-09-07 22:28:00,
2013-09-07 18:30:00,75.4,65.8,29.91,South,181,0.0,0.0,72,0.00,,---,0.07,VWS V14.01,2013-09-07 22:30:00,
2013-09-07 18:33:00,75.4,65.8,29.91,SSW,192,0.0,0.0,72,0.00,,---,0.07,VWS V14.01,2013-09-07 22:33:00,
2013-09-07 18:38:00,75.2,66.0,29.91,SSW,192,0.0,0.0,73,0.00,,---,0.07,VWS V14.01,2013-09-07 22:38:00,
2013-09-07 18:40:00,75.2,66.0,29.91,SSW,192,0.0,0.0,73,0.00,,---,0.07,VWS V14.01,2013-09-07 22:40:00,
2013-09-07 18:43:00,75.0,65.8,29.91,SSW,199,0.0,0.0,73,0.00,,---,0.07,VWS V14.01,2013-09-07 22:43:00,
2013-09-07 18:48:00,75.0,65.8,29.91,SSW,203,0.0,1.0,73,0.00,,---,0.07,VWS V14.01,2013-09-07 22:48:00,
2013-09-07 18:50:00,75.0,65.4,29.91,South,189,0.0,1.0,72,0.00,,---,0.07,VWS V14.01,2013-09-07 22:50:00,
2013-09-07 18:53:00,75.0,65.8,29.91,South,189,0.0,0.0,73,0.00,,---,0.07,VWS V14.01,2013-09-07 22:53:00,
2013-09-07 18:58:00,74.9,65.7,29.91,South,189,0.0,0.0,73,0.00,,---,0.07,VWS V14.01,2013-09-07 22:58:00,
2013-09-07 19:00:00,74.9,65.7,29.91,South,189,0.0,0.0,73,0.00,,---,0.07,VWS V14.01,2013-09-07 23:00:00,
2013-09-07 19:03:00,74.9,65.7,29.91,South,189,0.0,0.0,73,0.00,,---,0.07,VWS V14.01,2013-09-07 23:03:00,
2013-09-07 19:08:00,74.7,65.9,29.91,South,189,0.0,0.0,74,0.00,,---,0.07,VWS V14.01,2013-09-07 23:08:00,
2013-09-07 19:10:00,74.7,65.9,29.91,South,189,0.0,0.0,74,0.00,,---,0.07,VWS V14.01,2013-09-07 23:10:00,
2013-09-07 19:13:00,74.7,65.9,29.91,South,189,0.0,0.0,74,0.00,,---,0.07,VWS V14.01,2013-09-07 23:13:00,
2013-09-07 19:18:00,74.5,65.7,29.91,SSW,193,0.0,0.0,74,0.00,,---,0.07,VWS V14.01,2013-09-07 23:18:00,
2013-09-07 19:20:00,74.5,65.7,29.91,SSW,193,0.0,0.0,74,0.00,,---,0.07,VWS V14.01,2013-09-07 23:20:00,
2013-09-07 19:23:00,74.5,65.7,29.91,SSW,193,0.0,0.0,74,0.00,,---,0.07,VWS V14.01,2013-09-07 23:23:00,
2013-09-07 19:28:00,74.5,65.7,29.91,SSW,193,0.0,0.0,74,0.00,,---,0.07,VWS V14.01,2013-09-07 23:28:00,
2013-09-07 19:30:00,74.5,65.7,29.91,SSW,193,0.0,0.0,74,0.00,,---,0.07,VWS V14.01,2013-09-07 23:30:00,
2013-09-07 19:33:00,74.5,65.7,29.91,SSW,193,0.0,0.0,74,0.00,,---,0.07,VWS V14.01,2013-09-07 23:33:00,
2013-09-07 19:38:00,74.3,65.5,29.91,SSW,193,0.0,0.0,74,0.00,,---,0.07,VWS V14.01,2013-09-07 23:38:00,
2013-09-07 19:40:00,74.2,65.4,29.91,SSW,193,0.0,0.0,74,0.00,,---,0.07,VWS V14.01,2013-09-07 23:40:00,
2013-09-07 19:43:00,74.2,65.8,29.91,SSW,193,0.0,0.0,75,0.00,,---,0.07,VWS V14.01,2013-09-07 23:43:00,
2013-09-07 19:48:00,74.0,65.6,29.90,SSW,193,0.0,0.0,75,0.00,,---,0.07,VWS V14.01,2013-09-07 23:48:00,
2013-09-07 19:50:00,74.0,65.6,29.90,SSW,193,0.0,0.0,75,0.00,,---,0.07,VWS V14.01,2013-09-07 23:50:00,
2013-09-07 19:53:00,73.8,65.4,29.90,SSW,193,0.0,0.0,75,0.00,,---,0.07,VWS V14.01,2013-09-07 23:53:00,
2013-09-07 19:58:00,73.7,65.7,29.90,SSW,193,0.0,0.0,76,0.00,,---,0.07,VWS V14.01,2013-09-07 23:58:00,
2013-09-07 20:00:00,73.5,65.9,29.91,SSW,193,0.0,0.0,77,0.00,,---,0.07,VWS V14.01,2013-09-08 00:00:00,
2013-09-07 20:03:00,73.3,65.7,29.91,SSW,193,0.0,0.0,77,0.00,,---,0.07,VWS V14.01,2013-09-08 00:03:00,
2013-09-07 20:08:00,73.1,65.5,29.91,SSW,193,0.0,0.0,77,0.00,,---,0.07,VWS V14.01,2013-09-08 00:08:00,
2013-09-07 20:10:00,73.0,65.7,29.91,SSW,193,0.0,0.0,78,0.00,,---,0.07,VWS V14.01,2013-09-08 00:10:00,
2013-09-07 20:13:00,72.8,65.6,29.91,SSW,193,0.0,0.0,78,0.00,,---,0.07,VWS V14.01,2013-09-08 00:13:00,
2013-09-07 20:18:00,72.1,65.6,29.90,SSW,193,0.0,0.0,80,0.00,,---,0.07,VWS V14.01,2013-09-08 00:18:00,
2013-09-07 20:20:00,71.9,65.4,29.90,SSW,193,0.0,0.0,80,0.00,,---,0.07,VWS V14.01,2013-09-08 00:20:00,
2013-09-07 20:23:00,71.8,65.7,29.90,SSW,193,0.0,0.0,81,0.00,,---,0.07,VWS V14.01,2013-09-08 00:23:00,
2013-09-07 20:28:00,71.6,65.5,29.90,SSW,193,0.0,0.0,81,0.00,,---,0.07,VWS V14.01,2013-09-08 00:28:00,
2013-09-07 20:30:00,71.4,65.3,29.90,SSW,193,0.0,0.0,81,0.00,,---,0.07,VWS V14.01,2013-09-08 00:30:00,
2013-09-07 20:33:00,71.4,65.6,29.90,SSW,193,0.0,0.0,82,0.00,,---,0.07,VWS V14.01,2013-09-08 00:33:00,
2013-09-07 20:38:00,71.4,65.6,29.90,SSW,193,0.0,0.0,82,0.00,,---,0.07,VWS V14.01,2013-09-08 00:38:00,
2013-09-07 20:40:00,71.4,65.6,29.90,SSW,193,0.0,0.0,82,0.00,,---,0.07,VWS V14.01,2013-09-08 00:40:00,
2013-09-07 20:43:00,71.3,65.5,29.90,SSW,193,0.0,0.0,82,0.00,,---,0.07,VWS V14.01,2013-09-08 00:43:00,
2013-09-07 20:48:00,71.1,65.7,29.91,SSW,193,0.0,0.0,83,0.00,,---,0.07,VWS V14.01,2013-09-08 00:48:00,
2013-09-07 20:50:00,70.9,65.5,29.91,SSW,193,0.0,0.0,83,0.00,,---,0.07,VWS V14.01,2013-09-08 00:50:00,
2013-09-07 20:53:00,70.9,65.5,29.91,SSW,193,0.0,0.0,83,0.00,,---,0.07,VWS V14.01,2013-09-08 00:53:00,
2013-09-07 20:58:00,70.8,65.7,29.91,SSW,193,0.0,0.0,84,0.00,,---,0.07,VWS V14.01,2013-09-08 00:58:00,
2013-09-07 21:00:00,70.6,65.5,29.90,SSW,193,0.0,0.0,84,0.00,,---,0.07,VWS V14.01,2013-09-08 01:00:00,
2013-09-07 21:03:00,70.4,65.3,29.90,SSW,193,0.0,0.0,84,0.00,,---,0.07,VWS V14.01,2013-09-08 01:03:00,
2013-09-07 21:08:00,70.4,65.3,29.90,SSW,193,0.0,0.0,84,0.00,,---,0.07,VWS V14.01,2013-09-08 01:08:00,
2013-09-07 21:10:00,70.4,65.3,29.90,SSW,193,0.0,0.0,84,0.00,,---,0.07,VWS V14.01,2013-09-08 01:10:00,
2013-09-07 21:13:00,70.6,65.5,29.90,SSW,193,0.0,0.0,84,0.00,,---,0.07,VWS V14.01,2013-09-08 01:13:00,
2013-09-07 21:18:00,70.6,65.5,29.90,SSW,193,0.0,0.0,84,0.00,,---,0.07,VWS V14.01,2013-09-08 01:18:00,
2013-09-07 21:20:00,70.6,65.5,29.90,SSW,193,0.0,0.0,84,0.00,,---,0.07,VWS V14.01,2013-09-08 01:20:00,
2013-09-07 21:23:00,70.8,65.7,29.90,SSW,193,0.0,0.0,84,0.00,,---,0.07,VWS V14.01,2013-09-08 01:23:00,
2013-09-07 21:28:00,70.8,65.4,29.90,SSW,193,0.0,0.0,83,0.00,,---,0.07,VWS V14.01,2013-09-08 01:28:00,
2013-09-07 21:30:00,70.8,65.4,29.90,SSW,193,0.0,0.0,83,0.00,,---,0.07,VWS V14.01,2013-09-08 01:30:00,
2013-09-07 21:33:00,70.8,65.4,29.90,SSW,193,0.0,0.0,83,0.00,,---,0.07,VWS V14.01,2013-09-08 01:33:00,
2013-09-07 21:38:00,70.9,65.5,29.90,SSW,193,0.0,0.0,83,0.00,,---,0.07,VWS V14.01,2013-09-08 01:38:00,
2013-09-07 21:40:00,70.9,65.5,29.90,SSW,193,0.0,0.0,83,0.00,,---,0.07,VWS V14.01,2013-09-08 01:40:00,
2013-09-07 21:43:00,71.1,65.7,29.90,SW,236,0.0,0.0,83,0.00,,---,0.07,VWS V14.01,2013-09-08 01:43:00,
2013-09-07 21:48:00,71.3,65.5,29.91,SW,236,0.0,0.0,82,0.00,,---,0.07,VWS V14.01,2013-09-08 01:48:00,
2013-09-07 21:50:00,71.3,65.5,29.91,SW,236,0.0,0.0,82,0.00,,---,0.07,VWS V14.01,2013-09-08 01:50:00,
2013-09-07 21:53:00,71.4,65.3,29.91,WNW,302,3.0,6.0,81,0.00,,---,0.07,VWS V14.01,2013-09-08 01:53:00,
2013-09-07 21:58:00,71.9,65.8,29.91,WNW,287,0.0,6.0,81,0.00,,---,0.07,VWS V14.01,2013-09-08 01:58:00,
2013-09-07 22:00:00,72.1,65.6,29.91,NW,311,0.0,6.0,80,0.00,,---,0.07,VWS V14.01,2013-09-08 02:00:00,
2013-09-07 22:03:00,72.5,66.0,29.91,NW,311,0.0,0.0,80,0.00,,---,0.07,VWS V14.01,2013-09-08 02:03:00,
2013-09-07 22:08:00,72.8,65.9,29.91,NW,311,3.0,3.0,79,0.00,,---,0.07,VWS V14.01,2013-09-08 02:08:00,
2013-09-07 22:10:00,73.0,66.1,29.91,NW,311,0.0,3.0,79,0.00,,---,0.07,VWS V14.01,2013-09-08 02:10:00,
2013-09-07 22:13:00,73.1,66.2,29.91,NW,306,0.0,6.0,79,0.00,,---,0.07,VWS V14.01,2013-09-08 02:13:00,
2013-09-07 22:18:00,73.3,66.0,29.90,WNW,292,0.0,6.0,78,0.00,,---,0.07,VWS V14.01,2013-09-08 02:18:00,
2013-09-07 22:20:00,73.5,66.2,29.90,WNW,291,0.0,6.0,78,0.00,,---,0.07,VWS V14.01,2013-09-08 02:20:00,
2013-09-07 22:23:00,73.5,66.2,29.90,NW,315,0.0,7.0,78,0.00,,---,0.07,VWS V14.01,2013-09-08 02:23:00,
2013-09-07 22:28:00,73.7,66.4,29.90,NNW,342,2.0,7.0,78,0.00,,---,0.07,VWS V14.01,2013-09-08 02:28:00,
2013-09-07 22:30:00,73.7,66.1,29.90,WNW,289,0.0,7.0,77,0.00,,---,0.07,VWS V14.01,2013-09-08 02:30:00,
2013-09-07 22:33:00,73.8,66.2,29.90,West,280,0.0,6.0,77,0.00,,---,0.07,VWS V14.01,2013-09-08 02:33:00,
2013-09-07 22:38:00,73.8,66.2,29.90,West,275,3.0,6.0,77,0.00,,---,0.07,VWS V14.01,2013-09-08 02:38:00,
2013-09-07 22:40:00,73.8,66.2,29.90,West,281,3.0,6.0,77,0.00,,---,0.07,VWS V14.01,2013-09-08 02:40:00,
2013-09-07 22:43:00,73.8,66.2,29.90,WNW,288,0.0,5.0,77,0.00,,---,0.07,VWS V14.01,2013-09-08 02:43:00,
2013-09-07 22:48:00,73.8,66.2,29.90,WNW,285,0.0,6.0,77,0.00,,---,0.07,VWS V14.01,2013-09-08 02:48:00,
2013-09-07 22:50:00,73.8,66.2,29.90,WSW,237,0.0,6.0,77,0.00,,---,0.07,VWS V14.01,2013-09-08 02:50:00,
2013-09-07 22:53:00,73.8,66.2,29.90,NW,304,0.0,7.0,77,0.00,,---,0.07,VWS V14.01,2013-09-08 02:53:00,
2013-09-07 22:58:00,73.8,66.2,29.90,West,274,0.0,7.0,77,0.00,,---,0.07,VWS V14.01,2013-09-08 02:58:00,
2013-09-07 23:00:00,73.8,66.2,29.90,WNW,284,3.0,7.0,77,0.00,,---,0.07,VWS V14.01,2013-09-08 03:00:00,
2013-09-07 23:03:00,73.7,66.1,29.90,WNW,292,0.0,3.0,77,0.00,,---,0.07,VWS V14.01,2013-09-08 03:03:00,
2013-09-07 23:08:00,73.7,66.1,29.90,NW,316,0.0,5.0,77,0.00,,---,0.07,VWS V14.01,2013-09-08 03:08:00,
2013-09-07 23:10:00,73.7,66.1,29.90,NW,316,0.0,5.0,77,0.00,,---,0.07,VWS V14.01,2013-09-08 03:10:00,
2013-09-07 23:13:00,73.7,66.1,29.90,WNW,299,0.0,4.0,77,0.00,,---,0.07,VWS V14.01,2013-09-08 03:13:00,
2013-09-07 23:18:00,73.7,66.1,29.90,NW,315,0.0,4.0,77,0.00,,---,0.07,VWS V14.01,2013-09-08 03:18:00,
2013-09-07 23:20:00,73.7,66.4,29.90,NW,313,0.0,4.0,78,0.00,,---,0.07,VWS V14.01,2013-09-08 03:20:00,
2013-09-07 23:23:00,73.5,66.2,29.90,NW,313,0.0,0.0,78,0.00,,---,0.07,VWS V14.01,2013-09-08 03:23:00,
2013-09-07 23:28:00,73.5,66.2,29.90,NW,306,0.0,5.0,78,0.00,,---,0.07,VWS V14.01,2013-09-08 03:28:00,
2013-09-07 23:30:00,73.5,66.2,29.90,NW,305,0.0,5.0,78,0.00,,---,0.07,VWS V14.01,2013-09-08 03:30:00,
2013-09-07 23:33:00,73.5,66.2,29.90,NW,305,0.0,0.0,78,0.00,,---,0.07,VWS V14.01,2013-09-08 03:33:00,
2013-09-07 23:38:00,73.5,66.2,29.90,WNW,292,0.0,4.0,78,0.00,,---,0.07,VWS V14.01,2013-09-08 03:38:00,
2013-09-07 23:40:00,73.5,66.2,29.90,WNW,292,0.0,4.0,78,0.00,,---,0.07,VWS V14.01,2013-09-08 03:40:00,
2013-09-07 23:43:00,73.5,66.2,29.90,NW,322,0.0,0.0,78,0.00,,---,0.07,VWS V14.01,2013-09-08 03:43:00,
2013-09-07 23:48:00,73.5,65.9,29.91,NW,325,0.0,1.0,77,0.00,,---,0.07,VWS V14.01,2013-09-08 03:48:00,
2013-09-07 23:50:00,73.5,65.9,29.91,NW,323,3.0,3.0,77,0.00,,---,0.07,VWS V14.01,2013-09-08 03:50:00,
2013-09-07 23:53:00,73.5,65.9,29.91,NW,308,1.0,3.0,77,0.00,,---,0.07,VWS V14.01,2013-09-08 03:53:00,
2013-09-07 23:58:00,73.5,65.9,29.91,NW,304,3.0,6.0,77,0.00,,---,0.07,VWS V14.01,2013-09-08 03:58:00,